This demonstration page uses our WeatherBlox Daily Observations layout. Learn more.

Left ArrowRight Arrow

38.88101, -77.10428

Hourly Observations for December 22, 2015

Temp ( °F °C ) Dew Point ( °F °C ) Humidity (%) Winds ( mph kmh ) Pressure ( in mb ) Visibility ( mi km ) Precip ( " mm )
12:52 am 00:52 Cloudy 53 11.7 46 7.8 77 77 S 10 17 30.10 1019 10 16 N/A
1:52 am 01:52 Cloudy 53 11.7 47 8.3 80 80 S 13 20 30.09 1019 10 16 N/A
2:52 am 02:52 Cloudy 54 12.2 47 8.3 77 77 S 9 15 30.07 1018 10 16 N/A
3:52 am 03:52 Cloudy 53 11.7 47 8.3 80 80 S 8 13 30.05 1018 10 16 N/A
4:52 am 04:52 Cloudy with Light Rain 54 12.2 47 8.3 77 77 S 12 19 30.03 1017 10 16 N/A
5:52 am 05:52 Cloudy with Light Rain 53 11.7 49 9.4 86 86 S 9 15 30.04 1017 10 16 0.02 0.51
6:52 am 06:52 Cloudy with Light Rain 52 11.1 50 10 93 93 S 7 11 30.03 1017 9 14 0.05 1.27
7:52 am 07:52 Cloudy with Light Rain 52 11.1 51 10.6 97 97 SSW 7 11 30.02 1017 6 10 0.03 0.76
7:55 am 07:55 Cloudy with Light Rain 52 11.1 51 10.6 97 97 S 8 13 30.03 1017 5 8 N/A
8:12 am 08:12 Cloudy with Light Rain 54 12 52 11 94 94 S 10 17 30.00 1016 7 11 N/A
8:14 am 08:14 Cloudy with Light Rain 54 12 52 11 94 94 S 10 17 30.00 1016 6 10 N/A
8:52 am 08:52 Cloudy with Light Rain 52 11.1 50 10 93 93 S 9 15 29.99 1016 6 10 0.03 0.76
9:52 am 09:52 Cloudy 55 12.8 54 12.2 96 96 S 7 11 30.00 1016 10 16 0.01 0.25
10:41 am 10:41 Cloudy 56 13.3 54 12.2 93 93 S 7 11 30.00 1016 10 16 N/A
10:52 am 10:52 Cloudy 54 12.2 53 11.7 97 97 S 8 13 29.99 1016 7 11 N/A
11:40 am 11:40 Cloudy 54 12 54 12 100 100 S 8 13 29.97 1015 9 14 N/A
11:49 am 11:49 Cloudy 55 13 54 12 94 94 S 8 13 29.97 1015 9 14 N/A
11:52 am 11:52 Cloudy 55 12.8 53 11.7 93 93 S 8 13 29.98 1015 10 16 N/A
12:09 pm 12:09 Cloudy 54 12.2 53 11.7 97 97 SSW 7 11 29.97 1015 9 14 N/A
12:27 pm 12:27 Cloudy 54 12.2 53 11.7 97 97 S 6 9 29.97 1015 10 16 N/A
12:52 pm 12:52 Cloudy 55 12.8 53 11.7 93 93 S 9 15 29.96 1015 10 16 N/A
1:07 pm 13:07 Cloudy 55 12.8 53 11.7 93 93 S 9 15 29.94 1014 10 16 N/A
1:23 pm 13:23 Cloudy 56 13.3 54 12.2 93 93 S 10 17 29.94 1014 10 16 N/A
1:52 pm 13:52 Cloudy 56 13.3 55 12.8 97 97 S 8 13 29.94 1014 10 16 N/A
2:16 pm 14:16 Cloudy 59 15 57 14 94 94 S 7 11 29.94 1014 10 16 N/A
2:38 pm 14:38 Cloudy 57 14 55 13 94 94 S 7 11 29.94 1014 10 16 N/A
2:52 pm 14:52 Cloudy 58 14.4 56 13.3 93 93 S 6 9 29.94 1014 10 16 N/A
3:22 pm 15:22 Cloudy 57 14 55 13 94 94 S 8 13 29.94 1014 10 16 N/A
3:52 pm 15:52 Cloudy 58 14.4 56 13.3 93 93 S 6 9 29.96 1015 10 16 N/A
4:52 pm 16:52 Cloudy 58 14.4 56 13.3 93 93 S 6 9 29.98 1015 10 16 N/A
5:15 pm 17:15 Cloudy 57 13.9 55 12.8 93 93 S 5 7 30.00 1016 10 16 N/A
5:52 pm 17:52 Cloudy 61 16.1 57 13.9 87 87 SW 10 17 30.01 1016 10 16 N/A
6:52 pm 18:52 Cloudy 61 16.1 57 13.9 87 87 WSW 5 7 30.03 1017 10 16 N/A
7:52 pm 19:52 Cloudy 61 16.1 57 13.9 87 87 SW 6 9 30.05 1018 10 16 N/A
8:52 pm 20:52 Cloudy 57 13.9 55 12.8 93 93 S 7 11 30.06 1018 10 16 N/A
9:52 pm 21:52 Cloudy 57 13.9 55 12.8 93 93 S 6 9 30.07 1018 10 16 N/A
10:19 pm 22:19 Cloudy 58 14.4 56 13.3 93 93 SSW 6 9 30.09 1019 10 16 N/A
10:52 pm 22:52 Cloudy 58 14.4 56 13.3 93 93 SSW 5 7 30.09 1019 10 16 N/A
11:52 pm 23:52 Cloudy 60 15.6 57 13.9 90 90 SSW 7 11 30.09 1019 10 16 N/A

Powered by AerisWeather